(482875) = 2014 ER21

Discovered at Kitt Peak on 2009-09-15 by Spacewatch.

Orbit

Orbit type: Main Belt

Note: WebGL enabled browser required.

epoch2024-03-31.0
epoch JD2460400.5
perihelion date2023-07-08.17698
perihelion JD2460133.67698
argument of perihelion (°)92.93055
ascending node (°)5.83564
inclination (°)7.83638
eccentricity0.1101991
perihelion distance (AU)1.9653096
Tisserand w.r.t. Jupiter3.6
ΔV w.r.t. Earth (km/sec)9.0
semimajor axis (AU)2.2087072
mean anomaly (°)80.11612
mean daily motion (°/day)0.30025940
aphelion distance (AU)2.452
period (years)3.28
P-vector [x]-0.15145439
P-vector [y]0.84408825
P-vector [z]0.51437010
Q-vector [x]-0.98836703
Q-vector [y]-0.13661814
Q-vector [z]-0.06682883
absolute magnitude18.31
phase slope0.15
uncertainty0
referenceMPEC 2024-F50
observations used145
oppositions9
arc length (days)8922
first opposition used1999
last opposition used2024
residual rms (arc-secs)0.81
perturbers coarse indicatorM-v
perturbers precise indicator003Ek
first observation date used1999-10-15.0
last observation date used2024-03-19.0
computer nameMPCLINUX
Minimum Orbit Intersection Distances (in AU)
for orbit epoch: 2460400.5, reference: E2024-G95
Mercury1.65162
Venus1.25337
Earth1.00079
Mars0.37395
Jupiter2.67615
Saturn7.10233
Uranus16.3099
Neptune27.6571

Observations

146 total observations over interval: 1999 10 15.31055 – 2024 03 19.508731
These data are available for download (format description).

